Date,TemperatureHighF,TemperatureAvgF,TemperatureLowF,DewpointHighF,DewpointAvgF,DewpointLowF,HumidityHigh,HumidityAvg,HumidityLow,PressureMaxIn,PressureMinIn,WindSpeedMaxMPH,WindSpeedAvgMPH,GustSpeedMaxMPH,PrecipitationSumIn
2013-1-1,63.0,52.8,45.0,61.0,51.9,39.0,100,97,75,0.00,40.00,7,3,11,0.01
2013-1-2,65.0,52.5,42.0,61.0,50.2,26.0,100,92,53,0.00,40.00,7,3,11,0.01
2013-1-3,66.0,55.1,45.0,61.0,42.4,8.0,100,71,17,0.00,40.00,6,3,12,0.00
2013-1-4,69.0,57.2,45.0,62.0,36.2,3.0,98,54,12,0.00,40.00,22,7,37,0.00
2013-1-5,69.0,54.3,46.0,58.0,49.5,37.0,100,87,31,0.00,40.00,11,5,35,0.00
2013-1-6,70.0,57.6,47.0,58.0,41.4,11.0,99,61,16,0.00,40.00,22,11,35,0.00
2013-1-7,64.0,54.7,48.0,57.0,50.6,39.0,100,87,57,0.00,40.00,19,7,30,0.00
2013-1-8,66.0,55.1,44.0,60.0,46.2,31.0,99,74,44,0.00,40.00,11,4,26,0.00
2013-1-9,64.0,54.8,45.0,59.0,45.3,33.0,99,72,46,0.00,40.00,10,3,20,0.00
2013-1-10,66.0,51.4,45.0,57.0,46.8,27.0,99,86,43,0.00,40.00,5,3,19,0.00
2013-1-11,65.0,54.0,46.0,52.0,41.7,29.0,99,65,41,0.00,40.00,7,4,15,0.00
2013-1-12,66.0,55.0,48.0,60.0,46.6,37.0,99,75,40,0.00,40.00,11,7,24,0.00
2013-1-13,70.0,58.0,52.0,60.0,51.8,42.0,99,81,52,0.00,40.00,12,8,21,0.00
2013-1-14,70.0,58.1,49.0,59.0,48.0,42.0,99,72,38,0.00,40.00,12,7,22,0.00
2013-1-15,66.0,56.0,49.0,64.0,53.8,42.0,100,93,66,0.00,40.00,7,3,11,0.02
2013-1-16,69.0,57.1,48.0,55.0,50.2,47.0,99,80,54,0.00,40.00,7,4,14,0.01
2013-1-17,65.0,54.2,46.0,50.0,37.3,4.0,99,58,15,0.00,40.00,9,5,15,0.01
2013-1-18,69.0,55.9,44.0,55.0,32.7,13.0,87,44,23,0.00,40.00,12,6,23,0.00
2013-1-19,64.0,53.7,41.0,51.0,30.5,-17.0,87,49,5,0.00,40.00,12,7,22,0.00
2013-1-20,64.0,55.4,49.0,58.0,17.8,-27.0,98,39,3,0.00,40.00,9,4,16,0.00
2013-1-21,72.0,57.5,46.0,60.0,36.8,16.0,99,49,22,0.00,40.00,6,3,15,0.00
2013-1-22,68.0,54.3,42.0,61.0,45.3,24.0,100,76,33,0.00,40.00,6,2,15,0.00
2013-1-23,67.0,54.4,44.0,60.0,48.3,22.0,99,83,27,0.00,40.00,8,3,15,0.00
2013-1-24,63.0,51.8,43.0,58.0,47.2,31.0,99,86,53,0.00,40.00,14,3,31,0.00
2013-1-25,65.0,53.3,45.0,59.0,48.9,22.0,99,87,39,0.00,40.00,6,4,20,0.00
2013-1-26,65.0,54.6,47.0,57.0,34.2,-4.0,99,56,9,0.00,40.00,9,5,15,0.00
2013-1-27,69.0,58.0,48.0,58.0,32.8,-2.0,99,47,9,0.00,40.00,11,5,20,0.00
2013-1-28,66.0,54.4,42.0,54.0,41.7,26.0,90,64,29,0.00,40.00,9,4,20,0.00
2013-1-29,63.0,55.9,51.0,59.0,53.0,45.0,99,90,70,0.00,40.00,14,6,24,0.00
2013-1-30,66.0,56.2,51.0,58.0,54.1,51.0,100,93,58,0.00,40.00,11,6,21,0.51
2013-1-31,63.0,54.3,47.0,58.0,53.1,46.0,100,96,74,0.00,40.00,10,3,14,0.16
2013-2-1,63.0,54.3,48.0,61.0,50.2,27.0,100,86,38,0.00,40.00,10,5,16,0.01
2013-2-2,72.0,58.6,50.0,49.0,28.4,-7.0,74,39,4,0.00,40.00,15,7,31,0.00
2013-2-3,68.0,57.8,49.0,56.0,36.8,22.0,75,47,22,0.00,40.00,8,5,15,0.00
2013-2-4,64.0,53.3,44.0,59.0,48.1,28.0,100,86,32,0.00,40.00,10,3,19,0.00
2013-2-5,61.0,50.5,44.0,54.0,47.9,39.0,100,91,63,0.00,40.00,8,4,15,0.00
2013-2-6,64.0,52.5,43.0,57.0,48.9,42.0,99,89,58,0.00,40.00,6,3,20,0.00
2013-2-7,67.0,53.4,48.0,59.0,48.7,39.0,99,85,54,0.00,40.00,10,4,18,0.00
2013-2-8,61.0,54.5,48.0,59.0,49.8,36.0,100,85,59,0.00,40.00,8,4,12,0.00
2013-2-9,62.0,53.9,46.0,59.0,49.6,21.0,99,87,35,0.00,40.00,7,3,12,0.00
2013-2-10,66.0,54.7,47.0,59.0,48.1,29.0,99,80,45,0.00,40.00,10,3,15,0.00
2013-2-11,64.0,52.9,46.0,60.0,48.7,38.0,99,87,48,0.00,40.00,7,4,14,0.01
2013-2-12,61.0,50.0,42.0,58.0,46.4,26.0,100,89,42,0.00,40.00,8,4,14,0.01
2013-2-13,60.0,49.7,41.0,56.0,46.5,28.0,100,90,55,0.00,40.00,7,3,14,0.00
2013-2-14,60.0,49.0,41.0,56.0,46.2,25.0,99,91,50,0.00,40.00,12,4,18,0.00
2013-2-15,67.0,54.7,41.0,52.0,38.0,7.0,99,57,16,0.00,40.00,20,9,35,0.00
2013-2-16,61.0,52.0,46.0,57.0,48.5,40.0,99,89,58,0.00,40.00,8,4,24,0.00
2013-2-17,63.0,52.8,45.0,54.0,40.3,13.0,99,68,23,0.00,40.00,18,6,32,0.00
2013-2-18,58.0,50.0,43.0,56.0,46.3,36.0,99,88,48,0.00,40.00,21,5,39,0.00
2013-2-19,62.0,51.4,40.0,57.0,47.0,24.0,99,86,48,0.00,40.00,18,6,32,0.00
2013-2-20,65.0,54.2,46.0,56.0,43.5,30.0,99,70,37,0.00,40.00,17,7,34,0.00
2013-2-21,66.0,55.5,50.0,57.0,39.5,25.0,99,59,26,0.00,40.00,14,6,24,0.00
2013-2-22,60.0,54.7,50.0,56.0,47.7,41.0,99,78,63,0.00,40.00,19,7,33,0.95
2013-2-23,61.0,51.6,46.0,56.0,49.6,44.0,99,93,66,0.00,40.00,7,2,18,0.83
2013-2-24,57.0,50.4,45.0,56.0,50.0,45.0,99,98,84,0.00,40.00,7,3,14,0.94
2013-2-25,63.0,51.8,44.0,59.0,48.5,38.0,99,89,61,0.00,40.00,9,3,21,0.01
2013-2-26,62.0,51.0,46.0,58.0,49.6,44.0,100,95,61,0.00,40.00,5,3,12,0.01
2013-2-27,61.0,50.8,42.0,57.0,47.5,40.0,100,90,56,0.00,40.00,7,4,13,0.00
2013-2-28,61.0,51.1,43.0,59.0,46.9,32.0,100,87,55,0.00,40.00,7,4,15,0.00
2013-3-1,60.0,49.0,41.0,57.0,46.8,29.0,100,93,63,0.00,40.00,8,4,19,0.00
2013-3-2,61.0,50.4,41.0,57.0,48.5,36.0,100,93,78,0.00,40.00,10,5,17,0.00
2013-3-3,65.0,55.0,43.0,58.0,25.8,-16.0,99,46,4,0.00,40.00,10,5,20,0.00
2013-3-4,66.0,55.3,44.0,57.0,31.2,6.0,88,47,13,0.00,40.00,9,5,16,0.00
2013-3-5,65.0,52.4,41.0,56.0,41.7,19.0,100,70,38,0.00,40.00,9,4,20,0.00
2013-3-6,61.0,51.4,41.0,57.0,49.6,40.0,100,94,72,0.00,40.00,6,3,14,0.00
2013-3-7,59.0,50.1,41.0,57.0,46.4,28.0,100,88,58,0.00,40.00,7,3,15,0.00
2013-3-8,64.0,51.7,43.0,56.0,43.7,27.0,100,78,25,0.00,40.00,12,5,22,0.00
2013-3-9,64.0,53.2,44.0,54.0,45.6,34.0,97,77,46,0.00,40.00,12,6,22,0.00
2013-3-10,66.0,55.8,45.0,46.0,41.6,31.0,94,61,41,0.00,40.00,12,7,21,0.00
2013-3-11,64.0,53.5,45.0,60.0,47.5,35.0,99,81,61,0.00,40.00,12,6,19,0.00
2013-3-12,61.0,54.4,50.0,56.0,49.4,41.0,99,84,66,0.00,40.00,8,4,17,0.00
2013-3-13,64.0,54.4,46.0,59.0,48.8,34.0,99,82,47,0.00,40.00,8,5,16,0.00
2013-3-14,64.0,53.3,45.0,56.0,50.1,44.0,99,90,58,0.00,40.00,8,4,15,0.00
2013-3-15,62.0,53.7,48.0,60.0,52.5,46.0,100,96,74,0.00,40.00,8,3,16,0.05
2013-3-16,61.0,53.9,48.0,54.0,42.5,22.0,99,69,26,0.00,40.00,8,5,18,0.01
2013-3-17,57.0,52.2,49.0,55.0,48.8,38.0,99,89,54,0.00,40.00,9,3,16,0.02
2013-3-18,65.0,55.1,48.0,55.0,48.8,38.0,98,81,55,0.00,40.00,9,4,19,0.02
2013-3-19,64.0,53.7,44.0,58.0,49.9,43.0,99,88,62,0.00,40.00,7,4,15,0.00
2013-3-20,64.0,56.4,51.0,59.0,50.2,40.0,98,82,44,0.00,40.00,16,9,28,0.00
2013-3-21,68.0,57.5,49.0,59.0,43.5,29.0,98,61,35,0.00,40.00,19,9,38,0.00
2013-3-22,64.0,54.1,47.0,58.0,44.0,26.0,100,74,36,0.00,40.00,12,4,18,0.00
2013-3-23,61.0,53.8,48.0,59.0,53.6,48.0,100,99,91,0.00,40.00,5,2,10,0.04
2013-3-24,68.0,55.3,50.0,59.0,52.1,42.0,100,91,41,0.00,40.00,16,4,25,0.01
2013-3-25,64.0,54.7,48.0,59.0,53.8,47.0,100,97,81,0.00,40.00,6,3,10,0.00
2013-3-26,64.0,54.9,49.0,63.0,53.1,42.0,100,94,73,0.00,40.00,7,4,13,0.03
2013-3-27,65.0,54.4,47.0,60.0,51.0,45.0,100,89,67,0.00,40.00,9,3,12,0.03
2013-3-28,61.0,54.9,48.0,54.0,50.1,45.0,98,85,67,0.00,40.00,8,4,13,0.01
2013-3-29,61.0,51.7,45.0,55.0,47.3,35.0,100,86,59,0.00,40.00,5,2,12,0.19
2013-3-30,65.0,53.9,46.0,53.0,47.5,-99.9,100,83,62,0.00,40.00,11,4,21,0.20
2013-3-31,63.0,53.6,44.0,50.0,40.6,11.0,95,64,26,0.00,40.00,10,6,20,0.01
2013-4-1,66.0,54.0,44.0,43.0,18.2,-9.0,83,29,7,0.00,40.00,11,7,21,0.00
2013-4-2,62.0,52.1,41.0,48.0,38.0,22.0,94,61,33,0.00,40.00,9,5,20,0.00
2013-4-3,60.0,50.2,41.0,49.0,42.5,29.0,91,76,51,0.00,40.00,7,4,15,0.00
2013-4-4,66.0,53.7,43.0,49.0,43.6,37.0,92,70,48,0.00,40.00,9,4,16,0.00
2013-4-5,66.0,56.4,45.0,54.0,44.2,32.0,95,66,34,0.00,40.00,15,6,26,0.00
2013-4-6,73.0,64.4,57.0,53.0,35.1,27.0,59,34,27,0.00,40.00,14,10,24,0.00
2013-4-7,68.0,60.5,49.0,54.0,40.7,23.0,99,52,26,0.00,40.00,10,5,20,0.00
2013-4-8,60.0,53.3,46.0,54.0,47.4,36.0,98,81,58,0.00,40.00,7,3,13,0.00
2013-4-9,70.0,55.7,46.0,54.0,46.4,28.0,98,73,37,0.00,40.00,8,5,19,0.00
2013-4-10,71.0,59.5,46.0,56.0,44.8,18.0,97,62,24,0.00,40.00,11,3,19,0.00
2013-4-11,74.0,61.9,49.0,57.0,45.7,19.0,99,62,17,0.00,40.00,10,4,19,0.00
2013-4-12,69.0,59.3,51.0,55.0,41.9,15.0,97,59,17,0.00,40.00,9,4,17,0.00
2013-4-13,73.0,59.5,48.0,52.0,44.2,32.0,95,62,22,0.00,40.00,11,5,21,0.00
2013-4-14,72.0,61.4,51.0,55.0,42.7,29.0,80,51,36,0.00,40.00,8,4,15,0.00
2013-4-15,69.0,59.8,51.0,55.0,39.7,23.0,86,50,24,0.00,40.00,10,4,18,0.00
2013-4-16,71.0,60.2,51.0,56.0,43.5,23.0,97,57,28,0.00,40.00,7,3,12,0.00
2013-4-17,66.0,57.6,52.0,57.0,45.9,26.0,100,70,32,0.00,40.00,8,4,13,0.01
2013-4-18,62.0,53.8,46.0,55.0,51.1,38.0,100,92,61,0.00,40.00,7,2,11,0.02
2013-4-19,66.0,55.3,46.0,56.0,45.8,22.0,100,74,29,0.00,40.00,7,3,14,0.05
2013-4-20,69.0,57.0,46.0,55.0,46.0,27.0,92,69,35,0.00,40.00,7,4,16,0.01
2013-4-21,69.0,58.4,47.0,57.0,44.3,25.0,98,60,31,0.00,40.00,11,4,20,0.00
2013-4-22,70.0,60.9,54.0,55.0,38.5,22.0,96,47,22,0.00,40.00,9,5,17,0.00
2013-4-23,72.0,59.7,50.0,55.0,41.2,23.0,98,54,24,0.00,40.00,9,4,15,0.00
2013-4-24,69.0,60.5,50.0,59.0,43.9,23.0,100,61,23,0.00,40.00,10,5,20,0.00
2013-4-25,67.0,56.5,47.0,57.0,51.4,42.0,100,85,57,0.00,40.00,7,2,13,0.00
2013-4-26,65.0,55.2,45.0,55.0,51.0,39.0,100,87,69,0.00,40.00,6,3,13,0.01
2013-4-27,66.0,56.0,46.0,56.0,48.9,28.0,100,78,46,0.00,40.00,8,4,13,0.01
2013-4-28,67.0,56.2,46.0,56.0,45.8,22.0,100,71,36,0.00,40.00,10,3,20,0.00
2013-4-29,64.0,55.0,45.0,56.0,51.0,43.0,100,88,63,0.00,40.00,8,2,16,0.00
2013-4-30,65.0,56.4,50.0,58.0,52.4,43.0,100,88,57,0.00,40.00,7,3,13,0.05
2013-5-1,62.0,54.7,46.0,57.0,52.8,46.0,100,94,74,0.00,40.00,5,2,10,0.07
2013-5-2,67.0,56.3,48.0,56.0,52.5,47.0,100,88,65,0.00,40.00,8,3,13,0.01
2013-5-3,58.0,53.5,48.0,57.0,52.3,44.0,100,96,81,0.00,40.00,7,3,12,0.05
2013-5-4,64.0,53.8,47.0,57.0,52.0,44.0,100,94,67,0.00,40.00,7,3,11,0.03
2013-5-5,63.0,54.3,46.0,56.0,51.1,43.0,100,89,73,0.00,40.00,7,3,12,0.01
2013-5-6,67.0,57.3,49.0,57.0,47.3,36.0,90,70,53,0.00,40.00,7,3,15,0.00
2013-5-7,68.0,58.9,49.0,57.0,49.6,39.0,99,72,49,0.00,40.00,11,4,18,0.00
2013-5-8,70.0,59.6,48.0,56.0,47.5,35.0,92,65,42,0.00,40.00,12,6,25,0.00
2013-5-9,70.0,60.2,54.0,64.0,56.8,47.0,100,89,69,0.00,40.00,7,4,16,0.69
2013-5-10,71.0,59.2,52.0,63.0,55.7,-99.9,100,95,67,0.00,40.00,5,2,10,0.15
2013-5-11,70.0,59.8,52.0,59.0,53.4,-99.9,100,83,50,0.00,40.00,7,3,13,0.01
2013-5-12,65.0,58.0,51.0,63.0,54.9,44.0,100,90,68,0.00,40.00,7,3,14,0.33
2013-5-13,62.0,56.9,50.0,60.0,56.2,49.0,100,98,89,0.00,40.00,6,2,11,0.17
2013-5-14,64.0,56.8,50.0,60.0,53.6,39.0,100,90,64,0.00,40.00,6,3,10,0.10
2013-5-15,62.0,55.5,47.0,59.0,53.0,41.0,100,92,66,0.00,40.00,6,3,10,0.02
2013-5-16,63.0,50.9,48.0,56.0,33.5,-99.9,100,88,64,0.00,40.00,7,4,12,0.01
2013-5-17,63.0,54.5,46.0,57.0,47.5,-99.9,100,86,57,0.00,40.00,8,4,14,0.00
2013-5-18,62.0,54.7,46.0,56.0,51.8,44.0,100,90,69,0.00,40.00,7,3,14,0.00
2013-5-19,63.0,55.0,48.0,56.0,52.2,47.0,100,91,69,0.00,40.00,7,3,13,0.13
2013-5-20,66.0,55.5,47.0,55.0,47.7,37.0,92,76,63,0.00,40.00,6,4,13,0.03
2013-5-21,66.0,56.7,48.0,57.0,49.6,42.0,90,78,57,0.00,40.00,8,5,15,0.00
2013-5-22,68.0,59.9,52.0,58.0,51.1,36.0,100,75,36,0.00,40.00,8,5,14,0.00
2013-5-23,69.0,58.9,51.0,61.0,55.6,49.0,100,90,60,0.00,40.00,6,3,13,0.00
2013-5-24,66.0,57.2,50.0,60.0,53.5,44.0,100,88,62,0.00,40.00,5,3,13,0.14
2013-5-25,65.0,56.0,50.0,59.0,55.0,50.0,100,97,78,0.00,40.00,6,2,14,0.01
2013-5-26,62.0,56.1,51.0,59.0,54.1,43.0,100,94,65,0.00,40.00,9,2,19,0.87
2013-5-27,64.0,56.1,50.0,58.0,51.9,45.0,100,87,63,0.00,40.00,11,3,18,0.64
2013-5-28,64.0,57.3,51.0,59.0,53.0,44.0,100,86,64,0.00,40.00,9,4,15,0.09
2013-5-29,67.0,59.3,52.0,60.0,55.4,46.0,100,88,66,0.00,40.00,6,2,10,0.00
2013-5-30,71.0,61.4,52.0,62.0,53.4,37.0,100,78,36,0.00,40.00,7,3,12,0.00
2013-5-31,73.0,64.0,53.0,61.0,52.0,36.0,100,68,36,0.00,40.00,10,4,17,0.00
2013-6-1,70.0,60.1,51.0,63.0,56.0,41.0,100,87,66,0.00,40.00,9,3,18,0.00
2013-6-2,79.0,65.7,53.0,62.0,38.1,12.0,100,42,13,0.00,40.00,14,6,30,0.00
2013-6-3,68.0,60.6,50.0,59.0,43.9,12.0,100,63,13,0.00,40.00,11,5,20,0.00
2013-6-4,76.0,60.7,50.0,58.0,45.5,17.0,100,66,15,0.00,40.00,13,5,29,0.00
2013-6-5,66.0,57.0,50.0,60.0,52.7,45.0,100,87,66,0.00,40.00,6,3,13,0.00
2013-6-6,62.0,55.3,50.0,59.0,53.6,44.0,100,94,75,0.00,40.00,6,3,13,0.03
2013-6-7,63.0,55.4,49.0,58.0,52.5,44.0,100,90,57,0.00,40.00,7,3,15,0.03
2013-6-8,65.0,56.4,48.0,59.0,53.6,45.0,100,91,71,0.00,40.00,5,2,12,0.00
2013-6-9,66.0,57.6,50.0,61.0,53.7,42.0,100,88,66,0.00,40.00,6,3,13,0.00
2013-6-10,73.0,63.6,53.0,61.0,49.1,22.0,97,62,18,0.00,40.00,11,3,16,0.00
2013-6-11,74.0,64.9,52.0,61.0,45.0,22.0,100,53,18,0.00,40.00,11,3,20,0.00
2013-6-12,68.0,56.4,50.0,58.0,50.4,33.0,100,83,46,0.00,40.00,6,3,13,0.00
2013-6-13,69.0,58.0,50.0,59.0,53.4,44.0,100,86,52,0.00,40.00,12,4,23,0.00
2013-6-14,66.0,56.5,49.0,58.0,49.6,29.0,100,80,40,0.00,40.00,8,3,24,0.00
2013-6-15,65.0,56.8,48.0,58.0,52.9,43.0,100,88,63,0.00,40.00,7,3,13,0.04
2013-6-16,63.0,56.8,48.0,59.0,54.5,47.0,100,93,71,0.00,40.00,5,2,11,0.04
2013-6-17,65.0,57.6,50.0,59.0,54.0,47.0,100,88,69,0.00,40.00,6,3,12,0.00
2013-6-18,66.0,58.0,49.0,60.0,55.4,48.0,100,92,70,0.00,40.00,6,2,13,0.00
2013-6-19,64.0,56.2,50.0,59.0,54.0,47.0,100,93,67,0.00,40.00,6,3,15,0.03